Elsenborn, Belgium

6:04 AM CEST on May 29, 2017 (GMT +0200)
Elsenborn

Weather History for EBLB - April, 2013

Change the Weather History Date:

Monday, April 22, 2013

  Actual Average Record
Temperature  
Mean Temperature 45 °F -  
Max Temperature 58 °F 53 °F 71 °F (2011)
Min Temperature 32 °F 41 °F 26 °F (2001)
Degree Days  
Heating Degree Days 20    
Moisture  
Dew Point 31 °F    
Average Humidity 60    
Maximum Humidity 87    
Minimum Humidity 26    
Precipitation  
Precipitation 0.00 in - - ()
Sea Level Pressure  
Sea Level Pressure 30.03 in    
Wind  
Wind Speed 3 mph ()    
Max Wind Speed 10 mph    
Max Gust Speed -    
Visibility 6.6 miles    
Events      
Averages and records for this station are not official NWS values.
T = Trace of Precipitation, MM = Missing Value Source: Averaged Metar Reports

Daily Weather History Graph

Daily Weather History Graph

Search for Another Location

Airport or City:

Trip Planner

Search our weather history database for the weather conditions in past years. The results will help you decide how hot, cold, wet, or windy it might be!

Date:

Astronomy

Apr. 22, 2013 Rise Set
Actual Time 6:27 AM CEST 8:41 PM CEST
Civil Twilight 5:51 AM CEST 9:17 PM CEST
Nautical Twilight 5:07 AM CEST 10:01 PM CEST
Astronomical Twilight 4:16 AM CEST 10:53 PM CEST
Moon 4:53 PM CEST (4/22) 4:36 AM CEST (4/22)
Length of Visible Light 15h 25m
Length of Day
14h 14m
Waxing Gibbous, 86% of the Moon is Illuminated
Apr 22
Waxing Gibbous
Apr 25
Full
May 2
Last Quarter
May 10
New
May 18
First Quarter

Hourly Weather History & Observations

Time (CEST) Temp. Windchill Dew Point Humidity Pressure Visibility Wind Dir Wind Speed Gust Speed Precip Events Conditions
12:25 AM 42.8 °F - 35.6 °F 76% 30.01 in 6.2 mi Variable 2.3 mph - N/A   Mostly Cloudy
1:25 AM 42.8 °F - 33.8 °F 70% 30.01 in 6.2 mi Variable 2.3 mph - N/A   Mostly Cloudy
2:00 AM 43 °F - 35 °F 64% 30.06 in 7 mi Calm Calm - -   Overcast
2:25 AM 42.8 °F 41.1 °F 33.8 °F 70% 30.01 in 6.2 mi Variable 3.5 mph - N/A   Mostly Cloudy
3:25 AM 42.8 °F - 33.8 °F 70% 30.01 in 6.2 mi Variable 1.2 mph - N/A   Mostly Cloudy
4:25 AM 41.0 °F - 35.6 °F 81% 30.01 in 6.2 mi Variable 1.2 mph - N/A   Mostly Cloudy
5:00 AM 41 °F - 35 °F 72% 30.05 in 6 mi 2.2 mph - -   Scattered Clouds
5:25 AM 39.2 °F 35.9 °F 33.8 °F 81% 30.01 in 5.0 mi NW 4.6 mph - N/A   Scattered Clouds
5:35 AM 39.2 °F - 33.8 °F 81% 30.01 in 4.3 mi Variable 2.3 mph - N/A   Scattered Clouds
6:25 AM 35.6 °F - 30.2 °F 81% 30.01 in 3.7 mi Calm Calm - N/A   Scattered Clouds
6:33 AM 33.8 °F - 30.2 °F 87% 30.01 in - Calm Calm - N/A   Partly Cloudy
6:52 AM 33.8 °F - 30.2 °F 87% 30.01 in 2.2 mi Calm Calm - N/A   Partly Cloudy
7:02 AM 33.8 °F - 30.2 °F 87% 30.01 in - Variable 1.2 mph - N/A   Partly Cloudy
7:13 AM 33.8 °F - 30.2 °F 87% 30.01 in - Calm Calm - N/A   Partly Cloudy
7:25 AM 33.8 °F - 30.2 °F 87% 30.01 in - Calm Calm - N/A   Partly Cloudy
7:53 AM 35.6 °F - 32.0 °F 87% 30.01 in 3.1 mi Variable 2.3 mph - N/A   Clear
8:00 AM 36 °F - 33 °F 85% 30.09 in 3 mi 2.2 mph - -   Mist
8:18 AM 42.8 °F - 35.6 °F 76% 30.01 in 5.0 mi Variable 1.2 mph - N/A   Clear
8:25 AM 42.8 °F - 33.8 °F 70% 30.01 in 5.0 mi Calm Calm - N/A   Clear
9:25 AM 46.4 °F 45.2 °F 33.8 °F 62% 30.04 in 6.2 mi Variable 3.5 mph - N/A   Clear
10:25 AM 48.2 °F - 30.2 °F 50% 30.04 in 6.2 mi WSW 4.6 mph - N/A   Partly Cloudy
11:00 AM 49 °F - 28 °F 32% 30.05 in 13 mi SW 6.7 mph - -   Scattered Clouds
11:25 AM 50.0 °F - 26.6 °F 40% 30.04 in 6.2 mi WSW 5.8 mph - N/A   Partly Cloudy
12:25 PM 51.8 °F - 28.4 °F 41% 30.04 in 6.2 mi WSW 6.9 mph - N/A   Partly Cloudy
1:25 PM 53.6 °F - 32.0 °F 44% 30.04 in 6.2 mi WSW 6.9 mph - N/A   Partly Cloudy
2:00 PM 53 °F - 31 °F 31% 30.02 in 11 mi WSW 4.5 mph - -   Scattered Clouds
2:25 PM 53.6 °F - 30.2 °F 41% 30.01 in 6.2 mi SW 5.8 mph - N/A   Partly Cloudy
3:25 PM 55.4 °F - 28.4 °F 36% 30.01 in 6.2 mi West 6.9 mph - N/A   Partly Cloudy
4:25 PM 57.2 °F - 30.2 °F 36% 30.01 in 6.2 mi West 9.2 mph - N/A   Clear
5:00 PM 57 °F - 32 °F 26% 29.98 in 12 mi 4.5 mph - -  
5:25 PM 59.0 °F - 32.0 °F 36% 30.01 in 6.2 mi Variable 3.5 mph - N/A   Partly Cloudy
6:25 PM 55.4 °F - 26.6 °F 33% 30.01 in 6.2 mi WNW 10.4 mph - N/A   Partly Cloudy
7:25 PM 53.6 °F - 26.6 °F 35% 30.01 in 6.2 mi West 5.8 mph - N/A   Clear
8:00 PM 51 °F - 27 °F 26% 30.04 in 19 mi WNW 6.7 mph - -  
8:25 PM 48.2 °F - 26.6 °F 43% 30.04 in 6.2 mi Variable 3.5 mph - N/A   Partly Cloudy
9:25 PM 44.6 °F 43.1 °F 28.4 °F 53% 30.04 in 6.2 mi Variable 3.5 mph - N/A   Partly Cloudy
10:25 PM 41.0 °F - 28.4 °F 61% 30.04 in 6.2 mi Variable 2.3 mph - N/A   Mostly Cloudy
11:00 PM 40 °F - 29 °F 55% 30.11 in 22 mi 2.2 mph - -   Mostly Cloudy
11:25 PM 42.8 °F - 30.2 °F 61% 30.06 in 6.2 mi Variable 2.3 mph - N/A   Mostly Cloudy